[Iaude] MPEC C108: 2024 CW1 [a=2.02,e=0.51,i=5.5,H=26.6]

mpec at cfa.harvard.edu mpec at cfa.harvard.edu
Sat Feb 10 08:59:03 EST 2024


M.P.E.C. 2024-C108                            Issued 2024 February 10, 13:57 UT

     The Minor Planet Electronic Circulars contain information on unusual
         minor planets, routine data on comets and natural satellites,
         and occasional editorial announcements.  They are published
    on behalf of Division F of the International Astronomical Union by the
          Minor Planet Center, Smithsonian Astrophysical Observatory,
                          Cambridge, MA 02138, U.S.A.
			  
             Prepared using the Tamkin Foundation Computer Network

                              MPC at CFA.HARVARD.EDU
            URL https://www.minorplanetcenter.net/    ISSN 1523-6714

                                    2024 CW1                                    


Observations:
     K24C01W  C2024 02 08.35977309 25 35.065+16 57 12.43               VEC108F52
     K24C01W  C2024 02 08.37186109 25 38.784+16 55 35.28         20.65GVEC108F52
     K24C01W  C2024 02 08.38421109 25 42.591+16 53 54.65         20.71GVEC108F52
     K24C01W  C2024 02 08.39687609 25 46.412+16 52 12.58               VEC108F52
     K24C01W* C2024 02 09.33784709 31 01.403+14 50 30.63         21.25wXEC108F52
     K24C01W  C2024 02 09.34947509 31 04.550+14 49 06.38         21.03wXEC108F52
     K24C01W  C2024 02 09.36110209 31 07.673+14 47 42.28         20.80wXEC108F52
     K24C01W  C2024 02 09.37273109 31 10.778+14 46 17.59         21.14wXEC108F52
     K24C01W  C2024 02 09.51508409 31 47.652+14 29 03.19         21.36GVEC108F52
     K24C01W  C2024 02 09.51590309 31 47.879+14 28 56.81         20.85GVEC108F52
     K24C01W |C2024 02 10.13006009 34 53.890+13 19 10.00         21.3 GVEC108807
     K24C01W |C2024 02 10.14114009 34 56.580+13 17 56.60         21.2 GVEC108807
     K24C01W |C2024 02 10.14665009 34 57.900+13 17 19.70         21.2 GVEC108807

Observer details:
807 Cerro Tololo Observatory, La Serena.  Observers T. Linder, R. Holmes.
    0.61-m f/11 Ritchey-Chretien + CCD.
F52 Pan-STARRS 2, Haleakala.  Observers J. Herman, T. Lowe, P. Minguez, A.
    Schultz, I. Smith.  Measurers K. Chambers, T. de Boer, J. Fairlamb, H.
    Gao, M. Huber, C.-C. Lin, E. Magnier, Y. Ramanjooloo, R. Wainscoat, R.
    Weryk.  1.8-m Ritchey-Chretien + CCD.

Orbital elements:
2024 CW1                                                 Earth MOID = 0.0358 AU
Epoch 2023 Sept. 13.0 TT = JDT 2460200.5                MPC                     
M 319.21585              (2000.0)            P               Q                  
n   0.34442471     Peri.  143.47261     -0.23296563     -0.97050900             
a   2.0156100      Node   319.89440     +0.86791744     -0.17875146             
e   0.5096406      Incl.    5.51951     +0.43868705     -0.16174112             
P   2.86           H   26.65          G   0.15           U   8                  
Residuals in seconds of arc
240208 F52  0.0   0.2-    240209 F52  0.1-  0.0     240210 807  0.2-  0.3-
240208 F52  0.1-  0.5+    240209 F52  0.1-  0.2+    240210 807  0.1+  0.2+
240208 F52  0.2+  0.2-    240209 F52  0.1+  0.2-    240210 807  0.1+  0.1+
240208 F52  0.2-  0.3+    240209 F52  0.0   0.2+
240209 F52  0.1-  0.1+    240209 F52  0.2+  0.3-

Ephemeris:
2024 CW1                 a,e,i = 2.02, 0.51, 6                   q = 0.9884
Date    TT    R. A. (2000) Decl.     Delta      r    Elong.  Phase     V
2024 01 11    00 09 48.4 +39 54 28   0.09378 0.9886    90.4    84.1    24.4
...
2024 01 26    04 32 07.9 +59 03 42   0.04579 1.0093   121.7    56.1    22.0
...
2024 02 03    08 35 49.5 +33 17 47   0.05008 1.0334   162.4    16.7    21.1
...
2024 02 09    09 29 08.6 +15 33 07   0.07016 1.0566   179.3     0.7    21.1
2024 02 10    09 34 13.6 +13 32 40   0.07427 1.0609   178.6     1.3    21.3
2024 02 11    09 38 41.5 +11 44 50   0.07855 1.0653   177.2     2.6    21.5
...
2024 02 17    09 56 57.1 +04 12 39   0.1067  1.0937   171.9     7.4    22.5
...
2024 02 25    10 09 43.5 -00 50 48   0.1495  1.1365   168.6     9.9    23.4
...
2024 03 11    10 22 22.4 -04 15 46   0.2443  1.2284   162.4    14.2    24.8

A. U. Tomatic                (C) Copyright 2024 MPC           M.P.E.C. 2024-C108





More information about the Iaude mailing list